Snowfall_Accumulation
0.0 0.0 0.0 0.0 0.0 0.0 0.0 0.0 0.0 0.0 0.0 0.0 0.0 0.0 0.0 0.0 0.0 0.0 0.0 0.0 0.0 0.0 0.0 0.0 0.0 0.0 0.0 0.0 0.0 0.0 0.0 0.0 0.0 0.0 0.0 0.0 0.0 0.0 0.0 0.0 0.0 0.0 0.0 0.0
0.0 0.0 0.0 0.0 0.0 0.0 0.0 0.0 0.0 0.0 0.0 0.0 0.0 0.0 0.0 0.0 0.0 0.0 0.0 0.0 0.0 0.0 0.0 0.0 0.0 0.0 0.0 0.0 0.0 0.0 0.0 0.0 0.0 0.0 0.0 0.0 0.0 0.0 0.0 0.0 0.0 0.0 0.0 0.0
0.0 0.0 0.0 0.0 0.0 0.0 0.0 0.5 0.0 0.2 0.0 0.0 0.0 0.0 0.0 0.0 0.0 0.0 0.0 0.0 0.0 0.0 0.0 0.0 0.0 0.0 0.0 0.0 0.0 0.0 0.0 0.0 0.0 0.0 0.0 0.0 0.0 0.0 0.0 0.0 0.0 0.0 0.0 0.0
0.1 0.0 0.0 0.0 0.0 0.4 0.3 0.0 0.0 0.0 0.1 0.6 0.0 0.8 0.0 0.0 0.0 0.0 0.0 0.0 0.0 0.0 0.0 0.0 0.0 0.0 0.0 0.0 0.0 0.0 0.0 0.0 0.0 0.0 0.0 0.0 0.0 0.0 0.0 0.0 0.0 0.0 0.0 0.0
0.4 0.1 0.2 0.6 0.2 0.5 0.1 0.0 0.0 0.0 0.0 0.2 0.0 1.7 0.0 0.0 0.0 0.0 0.0 0.0 0.0 0.0 0.0 0.0 0.0 0.0 0.0 0.0 0.0 0.0 0.0 0.0 0.0 0.0 0.0 0.0 0.0 0.0 0.0 0.0 0.0 0.0 0.0 0.0
0.0 0.0 0.0 0.5 0.0 0.0 0.0 0.2 0.0 0.1 0.7 2.5 0.0 0.1 0.1 0.0 0.0 0.0 0.0 0.0 0.0 0.0 0.0 0.0 0.0 0.0 0.0 0.0 0.0 0.0 0.0 0.0 0.0 0.0 0.0 0.0 0.0 0.0 0.0 0.0 0.0 0.0 0.0 0.0
0.0 0.4 0.0 0.0 0.4 0.0 0.5 0.6 6.5 5.5 5.2 3.3 0.1 0.3 0.2 0.3 0.5 0.6 0.5 0.0 0.0 0.0 0.0 0.0 0.0 0.0 0.0 0.0 0.0 0.0 0.0 0.0 0.0 0.0 0.0 0.0 0.0 0.0 0.0 0.1 0.1 0.1 0.1 0.1
2.3 2.4 0.7 0.1 2.8 0.4 0.1 0.1 2.9 5.2 1.9 0.1 0.2 1.3 0.6 0.0 0.0 0.0 0.7 0.3 0.0 0.0 0.0 0.0 0.0 0.0 0.0 0.0 0.0 0.0 0.0 0.0 0.0 0.0 0.0 0.0 0.0 0.0 0.2 0.2 0.3 0.3 0.5 0.5
5.3 2.2 0.0 0.5 0.0 0.1 1.2 4.0 0.4 5.0 1.8 2.1 0.7 0.7 0.0 0.0 1.1 0.0 0.6 0.4 0.2 0.1 0.2 0.1 0.0 0.0 0.0 0.0 0.0 0.1 0.0 0.0 0.0 0.0 0.0 0.0 0.1 0.3 0.4 0.3 0.4 0.5 0.6 0.8
3.3 8.5 0.7 0.1 0.0 0.0 1.2 1.1 8.0 11.3 25.3 12.9 2.8 3.2 10.4 6.1 2.8 2.7 3.3 2.8 2.4 2.4 1.5 1.5 0.3 0.3 0.1 0.0 0.0 0.2 0.1 0.3 0.5 0.3 0.1 0.2 0.2 0.6 1.0 0.9 1.2 1.2 1.0 1.6
1.9 8.4 1.6 0.1 2.0 3.1 0.6 3.9 7.3 9.1 14.7 16.1 12.1 16.7 14.4 11.2 5.6 4.6 3.1 2.6 3.2 3.0 3.1 5.1 5.9 2.3 2.8 3.6 1.2 1.6 2.5 1.2 0.5 0.2 0.3 0.7 1.2 2.2 1.9 2.2 2.1 1.9 1.9 1.9
3.5 7.7 10.2 1.2 0.4 0.1 0.5 7.7 11.8 45.5 39.5 28.1 23.6 31.2 11.1 9.2 9.2 2.6 0.9 0.2 0.2 2.3 2.4 3.9 9.3 10.6 9.0 9.0 7.5 5.6 1.7 1.0 0.5 0.7 0.6 2.1 2.7 2.5 2.4 2.5 2.3 2.5 2.5 2.3
7.0 10.9 13.7 6.3 1.6 0.1 6.8 9.6 9.7 14.3 31.1 29.6 34.0 29.7 7.0 6.6 2.3 0.3 0.3 0.1 0.0 0.8 1.0 1.6 3.6 6.4 11.7 6.6 8.7 6.2 4.8 5.2 2.7 3.2 2.8 3.3 3.6 3.5 3.3 3.1 2.7 2.5 2.5 2.8
4.2 7.1 8.7 9.7 6.9 6.5 7.3 3.8 7.1 17.8 28.3 19.0 17.7 13.2 5.0 3.1 0.6 0.2 0.4 0.2 0.5 0.7 1.2 1.8 1.8 2.5 3.1 3.7 8.2 14.7 6.4 5.8 7.3 7.4 4.8 4.3 4.6 5.0 4.4 3.0 2.9 1.2 0.8 0.9
12.7 12.4 5.6 4.7 1.9 1.4 3.1 3.6 2.7 11.2 6.8 12.6 7.4 4.4 2.8 1.9 1.3 1.0 0.9 0.6 0.8 1.4 1.3 1.7 1.9 2.1 1.9 1.8 2.1 3.5 3.6 5.7 6.1 9.1 8.4 8.2 6.3 4.2 3.3 3.1 2.0 1.1 1.2 1.3
11.8 14.6 9.4 12.9 3.4 4.8 7.7 5.0 3.2 5.2 4.6 4.3 3.3 2.0 1.1 0.3 0.5 0.8 0.9 1.2 1.4 1.5 1.3 1.4 1.3 0.6 0.7 1.0 1.6 1.2 1.6 3.9 3.4 4.7 9.3 7.7 6.8 7.0 4.5 3.0 2.1 2.3 2.2 1.2
13.5 19.7 18.9 19.1 4.7 6.8 14.2 6.7 4.3 3.6 1.6 1.5 1.4 1.0 0.6 0.4 0.6 1.2 1.2 1.4 1.8 1.4 1.1 0.9 1.1 1.0 1.0 0.9 0.8 0.8 1.1 1.8 2.4 2.5 7.9 9.6 8.7 6.9 8.5 1.4 1.5 2.9 5.5 5.2
13.7 16.0 23.1 23.6 9.5 22.0 6.0 3.2 1.7 0.7 0.6 0.3 0.3 0.5 0.3 0.5 1.4 1.8 1.8 1.4 1.3 1.0 0.8 0.7 0.9 0.9 0.8 0.1 0.2 0.0 0.0 0.2 1.1 0.4 3.3 4.7 4.8 6.1 16.7 11.6 12.8 14.6 9.0 11.1
5.0 9.3 23.3 22.3 15.9 9.6 1.8 0.3 0.6 6.6 4.5 0.4 0.4 0.4 0.5 0.5 0.8 1.6 1.5 2.0 2.7 4.0 4.7 4.4 2.7 2.6 0.3 0.4 0.3 0.0 0.0 0.0 0.0 0.1 0.7 1.4 4.4 6.9 17.4 22.7 22.8 23.2 25.3 20.6
4.6 7.2 19.0 23.7 19.1 10.9 0.2 0.1 0.0 0.2 12.8 0.5 0.2 0.0 0.1 0.3 3.0 6.5 3.1 3.3 4.3 7.9 5.6 5.7 4.6 1.2 1.8 3.3 2.0 2.9 1.1 0.0 0.3 0.4 0.3 0.0 0.0 1.3 4.8 11.7 16.5 17.6 16.1 18.0
12.5 19.6 27.9 19.4 17.6 3.4 0.6 0.2 0.0 12.4 11.8 4.7 1.6 2.9 3.4 3.2 6.5 8.2 7.1 5.7 6.1 8.2 11.9 7.9 7.1 5.8 6.1 7.1 3.2 3.7 7.4 6.7 4.4 4.4 3.8 2.1 0.0 0.6 2.5 5.4 9.3 8.1 6.7 9.1
5.2 18.3 19.0 17.8 23.9 10.3 0.0 1.0 4.8 3.0 5.5 7.3 8.5 10.2 11.5 10.9 12.3 10.7 8.6 6.3 5.3 4.9 7.2 11.4 9.3 8.9 7.8 8.8 9.6 8.0 8.9 14.0 12.6 8.5 9.7 5.6 5.3 8.8 9.8 9.9 9.8 11.6 8.8 8.0
6.8 6.2 12.8 12.9 10.0 2.4 0.8 1.3 1.8 1.3 4.4 6.7 6.8 6.9 8.5 10.8 10.6 7.9 5.3 3.6 3.3 4.2 4.3 5.3 9.1 9.7 7.7 5.9 8.4 9.8 11.4 12.6 14.1 14.4 13.6 14.8 14.2 13.0 15.7 16.1 13.8 12.8 11.9 9.5
5.8 2.5 6.0 5.9 5.6 1.8 1.1 1.1 2.1 3.1 5.3 5.0 4.7 4.6 4.6 4.9 5.4 5.2 3.9 2.7 2.2 2.1 2.3 2.5 3.1 5.1 7.1 7.8 6.7 7.3 11.6 10.8 11.1 10.8 13.0 15.3 16.4 16.9 17.0 18.3 18.2 16.4 16.4 15.3
10.0 5.2 4.9 10.3 13.9 2.1 3.5 5.6 4.5 4.7 4.5 3.9 4.1 3.7 3.2 3.0 3.1 3.2 3.1 2.9 2.6 2.5 2.0 1.8 1.6 1.7 4.3 6.0 7.4 9.6 11.2 11.1 11.2 9.7 14.3 16.9 13.7 15.1 15.3 15.6 15.0 13.4 15.9 12.1
6.4 8.2 10.3 11.3 8.2 9.3 7.0 5.9 4.8 3.5 3.2 2.5 1.5 1.4 1.5 1.5 1.5 1.1 0.5 0.7 0.6 0.7 0.7 0.9 0.6 0.6 1.6 1.2 1.6 3.1 4.5 5.4 8.7 12.4 12.7 19.4 17.2 14.2 13.5 13.8 18.8 17.4 14.8 13.2